[[{"header":{"parameterUnit":"m.s-1","parameterCategory":2,"la1":30.2991,"la2":30.254,"lo1":-89.0895,"lo2":-89.0444,"dy":0.0017,"dx":0.0017,"nx":28,"ny":28,"refTime":"2024-07-02T21:00:00:Z","depth":"0","parameterNumber":2,"parameterNumberName":"U-component_of_CURRENTS"},"data":[0,0,0,0,0,0,0,0,0,0,0,0,0,0,0,0,0,0,0,0,0,0,0,0,0,0,0,0,0,0,0,0,0,0,0,0,0,0,0,0,0,0,0,0,0,0,0,0,0,0,0,0,0,0,0,0,0,0,0.3994,0.3996,0,0.4108,0.4109,0.411,0.409,0.4089,0.4087,0.4086,0.4147,0.415,0.4153,0,0,0,0,0,0,0,0,0,0,0,0,0,0.3766,0.3769,0.3994,0.3996,0.3998,0.4108,0.4109,0.411,0.409,0.4089,0.4087,0.4085,0.4146,0.4149,0.4153,0,0,0,0,0,0,0,0,0,0,0,0,0,0.3866,0.3771,0.3993,0.4005,0.4008,0.4108,0.4109,0.4111,0.4091,0.4089,0.4086,0.4084,0.4144,0.4149,0.4153,0.4227,0,0,0.4167,0.4169,0,0,0,0,0,0,0,0,0.386,0.3873,0.4001,0.4005,0.4008,0.4088,0.4052,0.4149,0.4091,0.4053,0.4086,0.4083,0.4127,0.4133,0.4152,0.4229,0.4232,0.4168,0.417,0.4172,0.4174,0,0,0,0,0,0,0,0.3853,0.3868,0.4033,0.4004,0.4008,0.4008,0.4019,0.407,0.4096,0.4057,0.4057,0.4079,0.4127,0.4148,0.4154,0.4233,0.4167,0.4171,0.4174,0.4176,0.4331,0.4332,0,0,0,0,0,0,0.3853,0.3863,0.403,0.4037,0.3933,0.4014,0.4026,0.406,0.4097,0.4103,0.4081,0.4078,0.4142,0.4148,0.4156,0.4273,0.4172,0.4177,0.4179,0.4329,0.4331,0.4332,0,0,0,0,0,0,0.3848,0.3868,0.4025,0.3956,0.3976,0.4021,0.4058,0.4063,0.4081,0.4117,0.412,0.4093,0.414,0.4149,0.4198,0.4274,0.4179,0.4183,0.4328,0.433,0.4332,0.449,0,0,0,0,0,0,0.3841,0.3865,0.3889,0.3956,0.3981,0.4107,0.4061,0.4067,0.4101,0.4098,0.413,0.4133,0.4139,0.4192,0.4203,0.4278,0.4186,0.4326,0.4329,0.4331,0.4483,0.4497,0.4509,0,0,0,0,0,0.3833,0.3889,0.389,0.3911,0.4013,0.411,0.4123,0.4141,0.4104,0.414,0.4138,0.4132,0.4215,0.4197,0.421,0.4289,0.4325,0.4328,0.4331,0.4477,0.4494,0.4509,0,0,0,0,0,0,0.3797,0.3895,0.3897,0.3976,0.4043,0.4109,0.4161,0.4148,0.4178,0.4176,0.4163,0.4169,0.4252,0.423,0.4209,0.4331,0.4265,0.4271,0.4371,0.4388,0.4401,0.4488,0.419,0,0,0,0,0,0.3804,0.3876,0.3953,0.4018,0.4064,0.4105,0.4142,0.4161,0.4198,0.4207,0.4218,0.4231,0.428,0.4295,0.434,0.4406,0.445,0.4454,0.4467,0.4479,0.4553,0.4651,0.4683,0.4343,0.4343,0.4343,0,0,0.3808,0.3873,0.391,0.4016,0.4075,0.4177,0.4123,0.4212,0.4278,0.4215,0.4297,0.43,0.4309,0.4396,0.4427,0.4382,0.4596,0.4483,0.4494,0.4563,0.4658,0.4692,0.4723,0.4345,0.4344,0.4344,0,0,0.3882,0.3919,0.4015,0.4083,0.419,0.4235,0.4259,0.4334,0.4352,0.4418,0.4403,0.4451,0.448,0.4536,0.4555,0.4664,0.4677,0.4643,0.4779,0.4871,0.4903,0.493,0.5032,0.5068,0.4632,0.4632,0.4632,0,0.388,0.4015,0.4055,0.4168,0.4246,0.4265,0.4388,0.4426,0.4491,0.4521,0.446,0.4559,0.4569,0.4704,0.4745,0.4711,0.4754,0.4722,0.4897,0.4925,0.4951,0.5049,0.5086,0.464,0.4639,0.4638,0.4638,0,0.4053,0.4139,0.4212,0.4364,0.4441,0.4559,0.4628,0.4682,0.4678,0.4697,0.4798,0.4808,0.4858,0.4864,0.4849,0.5035,0.5005,0.4921,0.4873,0.4996,0.5089,0.5125,0.4652,0.4649,0.4646,0.4644,0,0,0.4118,0.4298,0.4321,0.4401,0.4562,0.4641,0.4769,0.4892,0.4949,0.4983,0.5065,0.5161,0.5133,0.5158,0.514,0.5232,0.5451,0.5167,0.5168,0.5301,0.568,0.5584,0.5614,0.5387,0.5394,0.5399,0.5674,0,0.4253,0.4463,0.4531,0.472,0.4844,0.4897,0.5001,0.5088,0.5121,0.519,0.522,0.5287,0.5247,0.5265,0.5368,0.5427,0.5554,0.5388,0.5516,0.5522,0.5447,0.5656,0.5379,0.5594,0.5709,0.5715,0.5719,0,0.4445,0.4542,0.4749,0.489,0.4949,0.5046,0.5206,0.5295,0.5388,0.5398,0.5474,0.5466,0.5638,0.5538,0.5785,0.5672,0.5734,0.577,0.5778,0.5677,0.5495,0.5485,0.5655,0.5435,0.5775,0.5771,0.5767,0,0.452,0.4711,0.4868,0.493,0.5088,0.5164,0.5245,0.5355,0.5403,0.5532,0.5564,0.5716,0.5774,0.5906,0.5974,0.59,0.6215,0.6089,0.6086,0.6077,0.587,0.5832,0.5876,0.6317,0.6316,0.6316,0.6315,0,0.4684,0.4803,0.4895,0.4976,0.5099,0.5209,0.5323,0.5407,0.5505,0.5569,0.5664,0.5738,0.5871,0.601,0.6081,0.6217,0.6303,0.6214,0.6177,0.591,0.5874,0.5688,0.5634,0.6326,0.6324,0.6322,0.632,0,0.4774,0.4864,0.4996,0.5113,0.5141,0.5221,0.531,0.5369,0.5495,0.5589,0.5635,0.58,0.5991,0.612,0.6331,0.6334,0.6294,0.6487,0.6176,0.6099,0.5846,0.5811,0.5769,0.5614,0.6561,0.6561,0.6561,0,0.4853,0.4932,0.5019,0.5042,0.5091,0.5179,0.5218,0.5336,0.5391,0.5605,0.5651,0.5869,0.5961,0.6255,0.6336,0.6498,0.6286,0.632,0.6141,0.5892,0.5827,0.5612,0.5468,0.5934,0.5929,0.5924,0.5921,0,0.4913,0.4929,0.4993,0.5018,0.5057,0.5088,0.5165,0.5188,0.5341,0.5434,0.5572,0.5674,0.5958,0.5972,0.6187,0.6243,0.5988,0.6235,0.6054,0.5463,0.5161,0.4965,0.5703,0.5882,0.5886,0.5889,0.5891,0.5892,0.4892,0.4906,0.4933,0.496,0.4983,0.4966,0.4935,0.5015,0.5059,0.5144,0.5383,0.5442,0.5576,0.5823,0.5849,0.5696,0.5773,0.5518,0.5544,0.5383,0.5089,0.577,0.5833,0.5836,0.5839,0.5842,0.5844,0,0.48,0.4821,0.4854,0.4833,0.4788,0.4847,0.4856,0.4784,0.4752,0.4902,0.4994,0.5035,0.5046,0.5126,0.5161,0.5022,0.4789,0.4875,0.4488,0.4418,0.5088,0.4904,0.467,0.467,0.467,0.467,0.4671,0.4671,0.4746,0.4729,0.4741,0.4624,0.4602,0.4472,0.4435,0.4362,0.4398,0.4319,0.4308,0.4436,0.4623,0.4704,0.4539,0.444,0.4108,0.3945,0.3989,0.4411,0.4468,0.4522,0.4331,0.398,0.398,0.3042,0.3036,0.3031]},{"header":{"parameterUnit":"m.s-1","parameterCategory":2,"la1":30.2991,"la2":30.254,"lo1":-89.0895,"lo2":-89.0444,"dy":0.0017,"dx":0.0017,"nx":28,"ny":28,"refTime":"2024-07-02T21:00:00:Z","depth":"0","parameterNumber":3,"parameterNumberName":"V-component_of_CURRENTS"},"data":[0,0,0,0,0,0,0,0,0,0,0,0,0,0,0,0,0,0,0,0,0,0,0,0,0,0,0,0,0,0,0,0,0,0,0,0,0,0,0,0,0,0,0,0,0,0,0,0,0,0,0,0,0,0,0,0,0,0,0.008,0.0079,0,0.0007,0.0006,0.0005,-0.0048,-0.0048,-0.0048,-0.0049,-0.0185,-0.0189,-0.0192,0,0,0,0,0,0,0,0,0,0,0,0,0,0.0129,0.0128,0.008,0.0079,0.0078,0.0007,0.0006,0.0005,-0.0048,-0.0048,-0.0049,-0.0049,-0.0184,-0.0188,-0.0192,0,0,0,0,0,0,0,0,0,0,0,0,0,0.0086,0.0128,0.008,0.0044,0.004,0.0007,0.0006,0.0005,-0.0047,-0.0048,-0.0049,-0.0049,-0.0183,-0.0188,-0.0193,-0.0212,0,0,-0.0208,-0.021,0,0,0,0,0,0,0,0,0.0089,0.0084,0.005,0.0046,0.0042,-0.0011,-0.0027,-0.0071,-0.0047,-0.0015,-0.0049,-0.0049,-0.0132,-0.0141,-0.0154,-0.0218,-0.0224,-0.0208,-0.0211,-0.0213,-0.0215,0,0,0,0,0,0,0,0.0092,0.0087,0.005,0.0049,0.0044,0.0016,0.001,-0.0035,-0.0071,-0.0018,-0.0022,-0.0029,-0.0135,-0.0149,-0.0158,-0.0226,-0.0208,-0.0212,-0.0215,-0.0217,-0.0309,-0.0308,0,0,0,0,0,0,0.0105,0.009,0.0053,0.0048,0.0065,0.0016,0.0009,0.0006,-0.007,-0.0081,-0.0028,-0.0031,-0.014,-0.0152,-0.0163,-0.0164,-0.0213,-0.0218,-0.0221,-0.0309,-0.0309,-0.0308,0,0,0,0,0,0,0.0107,0.0103,0.0056,0.0068,0.006,0.0016,0.0013,0.0005,-0.0011,-0.0076,-0.0089,-0.0035,-0.0141,-0.0156,-0.0201,-0.0171,-0.022,-0.0225,-0.031,-0.0309,-0.0309,-0.0183,0,0,0,0,0,0,0.0108,0.0104,0.0105,0.0069,0.006,0.0044,0.0013,0.0004,-0.0013,-0.0018,-0.0086,-0.01,-0.0143,-0.0193,-0.0206,-0.0179,-0.0228,-0.0311,-0.031,-0.0309,-0.0188,-0.0179,-0.017,0,0,0,0,0,0.011,0.0127,0.0105,0.0101,0.0063,0.0045,0.0038,0.0004,-0.0013,-0.0013,-0.0063,-0.0097,-0.0196,-0.0197,-0.0212,-0.0185,-0.0311,-0.031,-0.0309,-0.0192,-0.018,-0.017,0,0,0,0,0,0,0.0153,0.0122,0.0098,0.0103,0.0075,0.0036,0.0037,0.0009,-0.0029,-0.0035,-0.0099,-0.0115,-0.0144,-0.0187,-0.0187,-0.0211,-0.0256,-0.0258,-0.0162,-0.0152,-0.0143,-0.0059,-0.0232,0,0,0,0,0,0.0161,0.0162,0.0123,0.0127,0.0119,0.0076,0.0064,0.0039,0.0002,-0.0015,-0.0062,-0.0111,-0.015,-0.0169,-0.0216,-0.0231,-0.0228,-0.0223,-0.0213,-0.0205,-0.0148,-0.0133,-0.0115,-0.0304,-0.0304,-0.0304,0,0,0.0179,0.0161,0.0161,0.0135,0.0113,0.0124,0.0068,0.0058,0.0065,-0.0025,-0.003,-0.0089,-0.0151,-0.0166,-0.018,-0.0196,-0.0155,-0.0204,-0.0196,-0.0142,-0.0129,-0.011,-0.0093,-0.0304,-0.0304,-0.0304,0,0,0.0241,0.02,0.0234,0.0213,0.0186,0.0157,0.0158,0.0119,0.0099,0.0073,0.002,-0.0002,-0.0084,-0.0091,-0.0113,-0.0081,-0.0115,-0.0119,0.0007,0.002,0.0037,0.0052,0.0073,0.0089,-0.0105,-0.0104,-0.0104,0,0.0266,0.0298,0.0239,0.0267,0.0269,0.0182,0.0226,0.0188,0.0138,0.0155,0.0084,0.0044,-0.003,0.001,0.0009,-0.0051,-0.0055,-0.0029,0.0037,0.0052,0.0066,0.0083,0.0099,-0.0098,-0.0099,-0.01,-0.01,0,0.0362,0.0375,0.0393,0.0399,0.039,0.0403,0.0352,0.0343,0.0296,0.0275,0.0283,0.0193,0.0194,0.0143,0.0077,0.0146,0.0108,0.0041,0.0023,0.0094,0.0105,0.012,-0.0089,-0.0092,-0.0093,-0.0095,0,0,0.0461,0.0464,0.0473,0.05,0.0462,0.0474,0.0487,0.0504,0.0559,0.0475,0.056,0.0464,0.0437,0.0413,0.0335,0.0331,0.0387,0.0234,0.0231,0.028,0.0428,0.0344,0.0351,0.0323,0.0327,0.0329,0.0396,0,0.0562,0.0646,0.0621,0.0695,0.0731,0.0672,0.0707,0.0702,0.0678,0.0724,0.0653,0.0675,0.053,0.0541,0.0518,0.0427,0.0433,0.0377,0.0332,0.0332,0.027,0.0369,0.0317,0.0367,0.041,0.0412,0.0414,0,0.0686,0.0717,0.0816,0.0861,0.0879,0.0912,0.0982,0.1,0.1024,0.1016,0.1033,0.0967,0.0976,0.0816,0.0757,0.0723,0.0606,0.0515,0.0514,0.0418,0.0278,0.0301,0.0392,0.0105,0.0436,0.0435,0.0433,0,0.0803,0.0866,0.0953,0.096,0.099,0.1048,0.1074,0.111,0.1162,0.1225,0.1287,0.1258,0.1269,0.1136,0.0924,0.0854,0.084,0.0719,0.0548,0.054,0.0485,0.0467,0.0324,0.0698,0.0698,0.0697,0.0697,0,0.0924,0.0994,0.1018,0.1058,0.1172,0.1171,0.1305,0.1331,0.1415,0.153,0.146,0.1556,0.1344,0.1281,0.1057,0.0873,0.0953,0.0627,0.0571,0.0521,0.0505,0.024,0.0096,0.07,0.0699,0.0699,0.0698,0,0.103,0.1052,0.1138,0.1195,0.1224,0.1306,0.1411,0.1516,0.1592,0.1751,0.1788,0.1807,0.1745,0.1509,0.1316,0.1069,0.0719,0.0779,0.0735,0.0672,0.0212,0.0079,-0.0048,-0.0154,0.0633,0.0632,0.0631,0,0.1094,0.1151,0.1218,0.127,0.1298,0.1408,0.1496,0.1584,0.1704,0.1911,0.2013,0.2028,0.2058,0.1761,0.1343,0.0999,0.0713,0.0685,0.0531,0.0232,0.0043,-0.0059,-0.0146,0.0507,0.0505,0.0504,0.0502,0,0.1186,0.1205,0.1257,0.1355,0.145,0.1564,0.1705,0.1823,0.1977,0.2153,0.2381,0.2443,0.2177,0.1837,0.1333,0.1042,0.0474,0.0636,0.035,-0.0021,-0.0156,-0.0301,0.0414,0.0487,0.0489,0.049,0.0491,0.0491,0.1229,0.1279,0.1342,0.1441,0.1556,0.172,0.1839,0.2032,0.2265,0.2563,0.2621,0.276,0.2215,0.1545,0.114,0.0311,0.0365,0.0027,-0.0089,-0.0148,-0.0315,0.0369,0.0344,0.0344,0.0345,0.0346,0.0346,0,0.1258,0.1325,0.1425,0.1549,0.1686,0.1739,0.1978,0.2139,0.2436,0.2718,0.2932,0.2693,0.2017,0.1298,0.0228,-0.032,-0.0508,-0.0627,-0.0791,-0.083,-0.02,-0.0278,-0.0469,-0.0469,-0.0468,-0.0468,-0.0468,-0.0467,0.1277,0.1363,0.1422,0.1632,0.1738,0.1945,0.2087,0.236,0.2588,0.2908,0.2983,0.2999,0.2377,0.0536,-0.0751,-0.1041,-0.1371,-0.145,-0.1585,-0.1212,-0.1161,-0.1113,-0.1223,-0.1608,-0.161,-0.2178,-0.2184,-0.2188]}],[{"header":{"parameterUnit":"m.s-1","parameterCategory":2,"la1":30.2991,"la2":30.254,"lo1":-89.0895,"lo2":-89.0444,"dy":0.0017,"dx":0.0017,"nx":28,"ny":28,"refTime":"2024-07-02T21:00:00:Z","depth":"2","parameterNumber":2,"parameterNumberName":"U-component_of_CURRENTS"},"data":[0,0,0,0,0,0,0,0,0,0,0,0,0,0,0,0,0,0,0,0,0,0,0,0,0,0,0,0,0,0,0,0,0,0,0,0,0,0,0,0,0,0,0,0,0,0,0,0,0,0,0,0,0,0,0,0,0,0,0.3165,0.3167,0,0.3227,0.3227,0.3227,0.3264,0.3265,0.3266,0.3266,0.332,0.332,0.3321,0,0,0,0,0,0,0,0,0,0,0,0,0,0.3058,0.3059,0.3165,0.3167,0.3168,0.3227,0.3227,0.3227,0.3264,0.3265,0.3266,0.3267,0.332,0.332,0.3321,0,0,0,0,0,0,0,0,0,0,0,0,0,0.3103,0.306,0.3165,0.3199,0.3204,0.3227,0.3227,0.3227,0.3264,0.3265,0.3266,0.3267,0.3319,0.332,0.3321,0.33,0,0,0.3324,0.3324,0,0,0,0,0,0,0,0,0.3101,0.3106,0.3193,0.3197,0.3202,0.3246,0.3209,0.3254,0.3263,0.3232,0.3266,0.3268,0.3298,0.3301,0.3299,0.3303,0.3305,0.3324,0.3324,0.3325,0.3325,0,0,0,0,0,0,0,0.3097,0.3104,0.3182,0.3194,0.32,0.3205,0.3212,0.3217,0.3251,0.3235,0.324,0.3259,0.33,0.3298,0.33,0.3306,0.3324,0.3325,0.3325,0.3326,0.3433,0.3435,0,0,0,0,0,0,0.3105,0.3101,0.318,0.3184,0.3162,0.3207,0.3214,0.3224,0.3251,0.3259,0.3258,0.3261,0.3296,0.3299,0.3302,0.3423,0.3325,0.3326,0.3326,0.3431,0.3433,0.3436,0,0,0,0,0,0,0.3103,0.3111,0.3178,0.3151,0.3161,0.3208,0.3218,0.3225,0.3269,0.327,0.3276,0.3302,0.3297,0.3301,0.3359,0.342,0.3326,0.3327,0.3428,0.3432,0.3435,0.3572,0,0,0,0,0,0,0.3099,0.3109,0.3126,0.3151,0.3163,0.3247,0.3218,0.3225,0.328,0.3285,0.3309,0.3313,0.3298,0.3358,0.336,0.3419,0.3328,0.3425,0.343,0.3434,0.3564,0.3579,0.3592,0,0,0,0,0,0.3095,0.312,0.3126,0.3137,0.3181,0.3251,0.3258,0.3289,0.3281,0.3327,0.3335,0.3314,0.3387,0.3361,0.3362,0.3424,0.3423,0.3428,0.3433,0.3558,0.3576,0.3592,0,0,0,0,0,0,0.3076,0.3127,0.3135,0.3172,0.3233,0.3261,0.3307,0.3314,0.3352,0.3361,0.3343,0.3349,0.3427,0.34,0.3372,0.3466,0.3401,0.3407,0.3495,0.3513,0.3526,0.3616,0.3328,0,0,0,0,0,0.308,0.3117,0.317,0.3205,0.3245,0.3278,0.331,0.3336,0.3369,0.3388,0.3384,0.3396,0.3439,0.3459,0.3477,0.3522,0.355,0.3562,0.3576,0.3588,0.3662,0.3768,0.3801,0.3453,0.3453,0.3453,0,0,0.3087,0.3116,0.3141,0.3206,0.3251,0.3358,0.3302,0.3379,0.3485,0.3386,0.3494,0.3451,0.3465,0.3529,0.3559,0.352,0.3687,0.3595,0.3605,0.3674,0.3778,0.3812,0.3843,0.3457,0.3456,0.3455,0,0,0.3129,0.3151,0.321,0.3259,0.3345,0.3419,0.3458,0.3503,0.3552,0.3631,0.3594,0.3613,0.3636,0.3669,0.3692,0.3799,0.3765,0.3761,0.3903,0.4004,0.4035,0.4063,0.4086,0.4115,0.376,0.3761,0.3761,0,0.3145,0.3208,0.3242,0.3307,0.3375,0.3468,0.3569,0.3664,0.3714,0.3735,0.3702,0.3724,0.3739,0.3838,0.3884,0.3845,0.385,0.3835,0.4028,0.4056,0.4083,0.41,0.413,0.3768,0.3767,0.3766,0.3766,0,0.3221,0.3286,0.3334,0.3478,0.3562,0.3665,0.3804,0.391,0.3966,0.3976,0.4039,0.4021,0.4026,0.4021,0.401,0.4162,0.4085,0.404,0.3993,0.4127,0.4134,0.4163,0.3778,0.3776,0.3773,0.3772,0,0,0.3257,0.3372,0.3393,0.3459,0.365,0.3728,0.3971,0.415,0.4284,0.4278,0.4356,0.4419,0.4311,0.4336,0.4266,0.4363,0.4544,0.429,0.4291,0.4329,0.4708,0.4527,0.4539,0.4512,0.4519,0.4525,0.4618,0,0.3337,0.3469,0.3517,0.371,0.3823,0.3959,0.4185,0.4335,0.4446,0.4543,0.4512,0.4563,0.4464,0.4449,0.4528,0.454,0.4636,0.4521,0.4563,0.4565,0.4403,0.4575,0.42,0.4242,0.4646,0.4651,0.4654,0,0.3475,0.3506,0.3666,0.3845,0.3906,0.4063,0.4386,0.4555,0.4746,0.4771,0.4771,0.474,0.4829,0.4746,0.4868,0.4778,0.4798,0.4806,0.4807,0.4635,0.4443,0.4185,0.428,0.4703,0.4699,0.4695,0.4692,0,0.352,0.3678,0.38,0.3838,0.404,0.4168,0.4355,0.4611,0.4709,0.4896,0.4936,0.4985,0.5008,0.5067,0.5047,0.4993,0.5167,0.5081,0.4933,0.4914,0.4613,0.4557,0.526,0.526,0.526,0.5259,0.5259,0,0.3639,0.3711,0.3837,0.3825,0.4033,0.4194,0.4409,0.4611,0.4795,0.4853,0.5003,0.5036,0.5112,0.5166,0.5143,0.5101,0.5239,0.5031,0.4972,0.4636,0.4584,0.4999,0.4968,0.5263,0.5262,0.5261,0.5261,0,0.366,0.3753,0.3793,0.3925,0.4031,0.4148,0.4369,0.4494,0.4752,0.4846,0.4897,0.5094,0.5193,0.5232,0.533,0.5212,0.5213,0.5171,0.4729,0.4619,0.4866,0.484,0.5053,0.5049,0.5045,0.5041,0.5039,0,0.3645,0.3687,0.3761,0.3793,0.3838,0.4031,0.418,0.4429,0.4491,0.4817,0.4808,0.5044,0.5067,0.5144,0.5048,0.5008,0.5141,0.465,0.4528,0.4948,0.4868,0.4848,0.4828,0.415,0.414,0.4132,0.4125,0,0.3467,0.3512,0.3506,0.3617,0.3719,0.3824,0.402,0.406,0.4325,0.4454,0.4623,0.4731,0.485,0.4646,0.4638,0.4548,0.4624,0.4484,0.51,0.4249,0.4101,0.402,0.403,0.4054,0.4061,0.4066,0.407,0.4073,0.3273,0.3258,0.3295,0.3421,0.3529,0.3623,0.366,0.3772,0.3858,0.3985,0.4207,0.4261,0.4325,0.4116,0.3978,0.3915,0.4209,0.4042,0.4065,0.4098,0.3966,0.3819,0.3691,0.3695,0.37,0.3703,0.3707,0,0.3024,0.3087,0.3123,0.3208,0.3245,0.344,0.355,0.3496,0.3487,0.3594,0.3667,0.3403,0.3314,0.3443,0.3225,0.3202,0.316,0.3102,0.3033,0.3106,0.3171,0.2991,0.2457,0.2453,0.2449,0.2446,0,0,0.2871,0.2837,0.29,0.2913,0.3038,0.3063,0.3107,0.3023,0.3036,0.2891,0.2887,0.3098,0.332,0.2828,0.2761,0.2594,0.2825,0.2492,0.3497,0.3488,0.3548,0.3718,0.3524,0,0,0,0,0]},{"header":{"parameterUnit":"m.s-1","parameterCategory":2,"la1":30.2991,"la2":30.254,"lo1":-89.0895,"lo2":-89.0444,"dy":0.0017,"dx":0.0017,"nx":28,"ny":28,"refTime":"2024-07-02T21:00:00:Z","depth":"2","parameterNumber":3,"parameterNumberName":"V-component_of_CURRENTS"},"data":[0,0,0,0,0,0,0,0,0,0,0,0,0,0,0,0,0,0,0,0,0,0,0,0,0,0,0,0,0,0,0,0,0,0,0,0,0,0,0,0,0,0,0,0,0,0,0,0,0,0,0,0,0,0,0,0,0,0,-0.0047,-0.0048,0,-0.0102,-0.0102,-0.0103,-0.0151,-0.0151,-0.0152,-0.0152,-0.0258,-0.026,-0.0263,0,0,0,0,0,0,0,0,0,0,0,0,0,-0.0027,-0.0026,-0.0047,-0.0048,-0.0048,-0.0102,-0.0102,-0.0103,-0.0151,-0.0151,-0.0152,-0.0152,-0.0257,-0.026,-0.0263,0,0,0,0,0,0,0,0,0,0,0,0,0,-0.0054,-0.0026,-0.0047,-0.0078,-0.0081,-0.0101,-0.0102,-0.0103,-0.0151,-0.0151,-0.0152,-0.0153,-0.0256,-0.026,-0.0263,-0.027,0,0,-0.0274,-0.0276,0,0,0,0,0,0,0,0,-0.0052,-0.0055,-0.0073,-0.0076,-0.008,-0.012,-0.0134,-0.0162,-0.015,-0.0125,-0.0152,-0.0153,-0.0216,-0.0222,-0.0231,-0.0275,-0.028,-0.0274,-0.0277,-0.0278,-0.0279,0,0,0,0,0,0,0,-0.005,-0.0053,-0.0069,-0.0074,-0.0078,-0.0104,-0.0108,-0.0139,-0.0167,-0.0127,-0.0131,-0.0136,-0.0218,-0.0228,-0.0234,-0.0281,-0.0274,-0.0277,-0.028,-0.0281,-0.0352,-0.0352,0,0,0,0,0,0,-0.0039,-0.0051,-0.0068,-0.0071,-0.0067,-0.0103,-0.0108,-0.0107,-0.0166,-0.0175,-0.0135,-0.0138,-0.0221,-0.023,-0.0238,-0.0248,-0.0278,-0.0281,-0.0283,-0.0352,-0.0352,-0.0352,0,0,0,0,0,0,-0.0039,-0.004,-0.0066,-0.0062,-0.0067,-0.0102,-0.0101,-0.0107,-0.0119,-0.0171,-0.0181,-0.014,-0.0222,-0.0233,-0.0271,-0.0253,-0.0283,-0.0286,-0.0353,-0.0352,-0.0352,-0.027,0,0,0,0,0,0,-0.0038,-0.0039,-0.0034,-0.0061,-0.0067,-0.0068,-0.01,-0.0108,-0.0121,-0.0125,-0.0178,-0.0189,-0.0224,-0.0265,-0.0274,-0.0258,-0.0289,-0.0353,-0.0353,-0.0352,-0.0273,-0.0266,-0.0261,0,0,0,0,0,-0.0037,-0.0013,-0.0033,-0.0035,-0.0058,-0.0067,-0.0072,-0.0101,-0.012,-0.0116,-0.0162,-0.0187,-0.0268,-0.0268,-0.0278,-0.0263,-0.0353,-0.0353,-0.0352,-0.0275,-0.0268,-0.0261,0,0,0,0,0,0,0.0002,-0.0017,-0.0039,-0.0023,-0.0044,-0.0075,-0.007,-0.0096,-0.0128,-0.0135,-0.0189,-0.0202,-0.0229,-0.026,-0.0258,-0.0284,-0.0313,-0.0315,-0.0251,-0.0244,-0.0239,-0.0196,-0.0292,0,0,0,0,0,0.0012,0.0021,-0.0008,0.0003,-0.0003,-0.0039,-0.0047,-0.0068,-0.01,-0.0114,-0.0154,-0.0197,-0.0233,-0.025,-0.0287,-0.03,-0.0324,-0.0297,-0.0292,-0.0286,-0.026,-0.0277,-0.027,-0.035,-0.035,-0.035,0,0,0.0026,0.0019,0.0021,0.0011,-0.0007,-0.0012,-0.0045,-0.0049,-0.0061,-0.0121,-0.0145,-0.0182,-0.0235,-0.0253,-0.0266,-0.0276,-0.0283,-0.0286,-0.0281,-0.0257,-0.0275,-0.0267,-0.026,-0.035,-0.035,-0.035,0,0,0.0074,0.0057,0.0083,0.007,0.0052,0.0018,0.0018,-0.0013,-0.0032,-0.0061,-0.0106,-0.0125,-0.0189,-0.0207,-0.023,-0.0214,-0.0257,-0.0233,-0.0163,-0.018,-0.0173,-0.0167,-0.021,-0.0208,-0.0224,-0.0224,-0.0224,0,0.0089,0.0114,0.0088,0.0108,0.0087,0.0033,0.0036,0.0016,-0.0027,-0.0019,-0.0061,-0.011,-0.0162,-0.016,-0.0161,-0.0197,-0.0225,-0.0183,-0.017,-0.0164,-0.0159,-0.0205,-0.0204,-0.022,-0.022,-0.0221,-0.0221,0,0.0158,0.0166,0.0182,0.0172,0.0144,0.0145,0.0096,0.0086,0.0044,0.0039,0.0033,-0.0031,-0.0045,-0.0074,-0.0119,-0.01,-0.0139,-0.0164,-0.018,-0.0145,-0.0197,-0.0197,-0.0214,-0.0216,-0.0217,-0.0218,0,0,0.0214,0.0225,0.023,0.0217,0.0173,0.0152,0.0141,0.0129,0.0164,0.0116,0.0159,0.0087,0.009,0.0065,0.0016,-0.0004,-0.0017,-0.0063,-0.0065,-0.0092,-0.0072,-0.0135,-0.0143,-0.0039,-0.0038,-0.0038,-0.0131,0,0.0267,0.0305,0.0289,0.0281,0.0272,0.0218,0.0208,0.0193,0.0199,0.0239,0.0201,0.0225,0.0131,0.0145,0.0106,0.0032,-0.0011,0.0009,-0.0112,-0.0116,-0.0164,-0.0142,-0.0115,-0.0197,-0.0131,-0.0131,-0.0132,0,0.0326,0.0339,0.0347,0.0314,0.0308,0.0294,0.0279,0.028,0.0335,0.0346,0.0384,0.039,0.0376,0.0285,0.017,0.0187,0.0065,-0.0015,-0.0021,-0.0099,-0.0178,-0.0218,-0.0201,-0.0133,-0.0133,-0.0133,-0.0133,0,0.0317,0.0361,0.0354,0.0345,0.0316,0.0312,0.0298,0.0332,0.0357,0.0461,0.0537,0.0514,0.0535,0.0391,0.0235,0.0211,0.0094,0.0038,-0.0144,-0.0152,-0.016,-0.0169,-0.0058,-0.0058,-0.0058,-0.0058,-0.0057,0,0.0314,0.0302,0.0369,0.0342,0.0357,0.0338,0.0374,0.0387,0.0461,0.0549,0.0612,0.0683,0.0569,0.0509,0.03,0.0087,0.0138,-0.0119,-0.0167,-0.0136,-0.0142,-0.0106,-0.011,-0.0061,-0.006,-0.006,-0.0059,0,0.0211,0.0264,0.0276,0.0317,0.033,0.0336,0.037,0.0448,0.0527,0.0653,0.0702,0.081,0.0767,0.0616,0.0414,0.0198,-0.002,-0.0124,-0.009,-0.0132,-0.0279,-0.0279,-0.0323,-0.0326,-0.0328,-0.033,-0.0332,0,0.0133,0.0149,0.0243,0.03,0.0307,0.0346,0.0393,0.0439,0.055,0.072,0.0808,0.0874,0.0956,0.0667,0.032,-0.0013,-0.0048,-0.0242,-0.0291,-0.0258,-0.0301,-0.0296,-0.0292,-0.0285,-0.0286,-0.0287,-0.0287,0,0.0028,0.0097,0.0126,0.0259,0.0336,0.041,0.0506,0.0592,0.0712,0.0904,0.1141,0.1238,0.0991,0.0743,0.0284,0.0025,-0.018,-0.0275,-0.0216,-0.0225,-0.023,-0.027,-0.0265,-0.0295,-0.0294,-0.0294,-0.0293,-0.0293,-0.0009,0.0031,0.0162,0.0265,0.0372,0.0539,0.0652,0.085,0.1076,0.139,0.1355,0.1523,0.1129,0.0621,0.0186,-0.026,-0.0258,-0.0414,-0.0408,-0.0401,-0.0383,-0.0392,-0.0486,-0.0486,-0.0486,-0.0486,-0.0486,0,0.003,0.0096,0.0188,0.0375,0.0527,0.0558,0.079,0.1003,0.1389,0.1569,0.1788,0.1467,0.114,0.0692,0.0014,-0.0411,-0.0426,-0.0522,-0.0439,-0.043,-0.0422,-0.0402,-0.0512,-0.0513,-0.0513,-0.0514,0,0,0.0084,0.02,0.0258,0.0524,0.0645,0.0892,0.1061,0.1417,0.163,0.1908,0.1966,0.1882,0.1301,0.0812,0.0245,-0.0117,-0.0172,-0.0194,-0.0136,0.0036,0.005,-0.0333,-0.0289,0,0,0,0,0]}],[{"header":{"parameterUnit":"m.s-1","parameterCategory":2,"la1":30.2991,"la2":30.254,"lo1":-89.0895,"lo2":-89.0444,"dy":0.0017,"dx":0.0017,"nx":28,"ny":28,"refTime":"2024-07-02T21:00:00:Z","depth":"4","parameterNumber":2,"parameterNumberName":"U-component_of_CURRENTS"},"data":[0,0,0,0,0,0,0,0,0,0,0,0,0,0,0,0,0,0,0,0,0,0,0,0,0,0,0,0,0,0,0,0,0,0,0,0,0,0,0,0,0,0,0,0,0,0,0,0,0,0,0,0,0,0,0,0,0,0,0.1655,0.1656,0,0.1696,0.1696,0.1696,0.1771,0.1773,0.1775,0.1777,0.1844,0.1844,0.1844,0,0,0,0,0,0,0,0,0,0,0,0,0,0.1585,0.1586,0.1654,0.1656,0.1657,0.1696,0.1696,0.1696,0.177,0.1773,0.1776,0.1778,0.1844,0.1844,0.1844,0,0,0,0,0,0,0,0,0,0,0,0,0,0.1613,0.1586,0.1654,0.1704,0.171,0.1696,0.1696,0.1696,0.177,0.1773,0.1776,0.1779,0.1844,0.1844,0.1844,0.1779,0,0,0.1843,0.1843,0,0,0,0,0,0,0,0,0.1611,0.1615,0.1696,0.1701,0.1707,0.1738,0.1697,0.1727,0.1769,0.1739,0.1777,0.1781,0.1813,0.1816,0.1806,0.1782,0.1785,0.1843,0.1843,0.1843,0.1843,0,0,0,0,0,0,0,0.161,0.1613,0.1664,0.1697,0.1704,0.1707,0.1714,0.1702,0.1753,0.1742,0.1749,0.1765,0.1816,0.1806,0.1808,0.1786,0.1843,0.1843,0.1842,0.1842,0.1934,0.1936,0,0,0,0,0,0,0.1618,0.1611,0.1662,0.1666,0.1674,0.1706,0.1714,0.1719,0.1753,0.1763,0.1762,0.1768,0.1805,0.1808,0.1811,0.1894,0.1843,0.1842,0.1842,0.1931,0.1934,0.1937,0,0,0,0,0,0,0.1616,0.1622,0.1661,0.1646,0.1652,0.1705,0.171,0.1718,0.1764,0.1769,0.1779,0.1807,0.1807,0.1811,0.1867,0.1892,0.1842,0.1842,0.1928,0.1932,0.1936,0.1959,0,0,0,0,0,0,0.1614,0.162,0.1638,0.1646,0.1654,0.1687,0.1708,0.1717,0.1768,0.1778,0.1809,0.1815,0.181,0.1867,0.1866,0.1891,0.1842,0.1925,0.193,0.1934,0.1955,0.1964,0.1971,0,0,0,0,0,0.1611,0.1615,0.1638,0.1646,0.1672,0.1689,0.1692,0.1735,0.1768,0.1787,0.183,0.1817,0.1898,0.1869,0.1867,0.1892,0.1922,0.1928,0.1934,0.1952,0.1962,0.1971,0,0,0,0,0,0,0.1598,0.1624,0.165,0.1665,0.1696,0.1706,0.172,0.1757,0.1799,0.1823,0.1835,0.1844,0.1913,0.1902,0.1869,0.194,0.1913,0.1919,0.1927,0.1937,0.1944,0.2022,0.1842,0,0,0,0,0,0.1601,0.1612,0.1645,0.1661,0.1672,0.1705,0.1724,0.1761,0.1794,0.1818,0.1844,0.1881,0.1921,0.1933,0.1963,0.1974,0.2014,0.1999,0.2006,0.2012,0.208,0.217,0.2192,0.1956,0.1956,0.1956,0,0,0.1601,0.1618,0.1627,0.166,0.1675,0.1676,0.1723,0.1762,0.1785,0.1814,0.1858,0.1915,0.194,0.1981,0.2007,0.1977,0.2088,0.202,0.2024,0.2091,0.2178,0.2201,0.2222,0.196,0.1959,0.1959,0,0,0.1602,0.1617,0.1634,0.1648,0.1696,0.169,0.1715,0.1757,0.1804,0.186,0.1902,0.199,0.2014,0.2049,0.2066,0.2132,0.2143,0.2139,0.2213,0.2296,0.2317,0.2336,0.2355,0.2376,0.212,0.212,0.212,0,0.1608,0.1625,0.1643,0.1657,0.1655,0.1697,0.17,0.1733,0.1801,0.1876,0.1891,0.2053,0.2051,0.2143,0.2178,0.2148,0.2197,0.216,0.2306,0.2326,0.2345,0.2361,0.2384,0.2122,0.2121,0.2121,0.2121,0,0.1612,0.1635,0.1635,0.1645,0.164,0.1653,0.1681,0.171,0.1774,0.188,0.2048,0.2094,0.2222,0.2206,0.2212,0.2349,0.2338,0.2316,0.2277,0.237,0.238,0.2403,0.2124,0.2124,0.2123,0.2123,0,0,0.1593,0.1635,0.1642,0.1642,0.1637,0.1629,0.1634,0.1706,0.1781,0.1926,0.207,0.2184,0.2339,0.2375,0.2403,0.2462,0.2583,0.2464,0.2468,0.2475,0.276,0.2535,0.2537,0.2604,0.261,0.2615,0.269,0,0.1595,0.1605,0.1627,0.161,0.1584,0.1596,0.1612,0.1697,0.1791,0.194,0.2129,0.2293,0.2364,0.244,0.2546,0.2596,0.266,0.2565,0.2682,0.2685,0.2467,0.2562,0.2633,0.2707,0.2712,0.2716,0.2719,0,0.1547,0.1578,0.1563,0.1585,0.1587,0.1598,0.1603,0.1654,0.1867,0.1955,0.2204,0.2401,0.2611,0.2606,0.284,0.2795,0.2825,0.283,0.2832,0.2653,0.2506,0.2614,0.276,0.2757,0.2754,0.2751,0.2749,0,0.1428,0.1494,0.1474,0.1474,0.1524,0.1549,0.1593,0.1718,0.1806,0.2018,0.2129,0.2459,0.2614,0.2775,0.2902,0.2899,0.3081,0.3043,0.2866,0.2846,0.3012,0.2992,0.3195,0.3195,0.3194,0.3194,0.3194,0,0.1323,0.1313,0.145,0.1443,0.1481,0.1538,0.1623,0.166,0.1851,0.1998,0.2223,0.2366,0.2681,0.2863,0.2943,0.299,0.3136,0.293,0.288,0.3008,0.2988,0.3023,0.3002,0.3197,0.3196,0.3196,0.3195,0,0.1124,0.1201,0.1209,0.1355,0.1408,0.1437,0.1621,0.1697,0.1838,0.1996,0.2091,0.2383,0.2592,0.2811,0.3004,0.2988,0.3034,0.2985,0.309,0.3036,0.2734,0.2714,0.2842,0.2835,0.2829,0.2825,0.2821,0,0.0998,0.0995,0.1148,0.1187,0.1267,0.1376,0.1454,0.1635,0.1727,0.1984,0.2061,0.2352,0.253,0.2643,0.2839,0.2948,0.2917,0.2893,0.2877,0.2775,0.2714,0.2702,0.269,0.2812,0.281,0.2809,0.2807,0,0.0822,0.0897,0.0946,0.105,0.114,0.1222,0.1385,0.1453,0.1669,0.1834,0.2005,0.2169,0.2363,0.2565,0.2633,0.2709,0.2899,0.2834,0.2847,0.2833,0.2739,0.2682,0.2677,0.2788,0.279,0.2792,0.2793,0,0.072,0.072,0.0832,0.0897,0.0988,0.1055,0.1166,0.1335,0.1469,0.1787,0.1848,0.21,0.2347,0.2436,0.2513,0.2563,0.2565,0.2487,0.2518,0.2541,0.2413,0.2249,0.2144,0,0,0,0,0,0.0636,0.0636,0.0686,0.0759,0.0839,0.0909,0.1101,0.1236,0.1492,0.1559,0.1712,0.188,0.2052,0.2198,0.2206,0.2383,0.2552,0.2376,0.247,0.2679,0.2702,0.2581,0,0,0,0,0,0,0.0582,0.0609,0.0636,0.0628,0.066,0.075,0.0868,0.1048,0.1136,0.1404,0.1535,0.1722,0.1944,0.2023,0.2152,0.2192,0.2204,0.2543,0.2538,0.2666,0.2687,0.2705,0.2589,0,0,0,0,0]},{"header":{"parameterUnit":"m.s-1","parameterCategory":2,"la1":30.2991,"la2":30.254,"lo1":-89.0895,"lo2":-89.0444,"dy":0.0017,"dx":0.0017,"nx":28,"ny":28,"refTime":"2024-07-02T21:00:00:Z","depth":"4","parameterNumber":3,"parameterNumberName":"V-component_of_CURRENTS"},"data":[0,0,0,0,0,0,0,0,0,0,0,0,0,0,0,0,0,0,0,0,0,0,0,0,0,0,0,0,0,0,0,0,0,0,0,0,0,0,0,0,0,0,0,0,0,0,0,0,0,0,0,0,0,0,0,0,0,0,0.0039,0.0039,0,0.0021,0.0021,0.0021,-0.0019,-0.002,-0.0021,-0.0022,-0.0075,-0.0076,-0.0076,0,0,0,0,0,0,0,0,0,0,0,0,0,0.002,0.0021,0.0039,0.0039,0.0038,0.0021,0.0021,0.0021,-0.0019,-0.002,-0.0022,-0.0023,-0.0075,-0.0076,-0.0076,0,0,0,0,0,0,0,0,0,0,0,0,0,0.002,0.0021,0.0039,0.0014,0.0012,0.0021,0.0021,0.0021,-0.0019,-0.0021,-0.0022,-0.0024,-0.0075,-0.0076,-0.0076,-0.0048,0,0,-0.0078,-0.0079,0,0,0,0,0,0,0,0,0.002,0.0021,0.0018,0.0016,0.0013,-0.0,-0.0005,-0.0005,-0.0019,-0.0005,-0.0023,-0.0024,-0.0054,-0.0056,-0.0052,-0.0051,-0.0053,-0.0078,-0.0079,-0.0079,-0.0079,0,0,0,0,0,0,0,0.002,0.0022,0.0035,0.0018,0.0015,-0.0002,-0.0004,-0.0005,-0.0019,-0.0006,-0.001,-0.0015,-0.0056,-0.0052,-0.0054,-0.0054,-0.0078,-0.0079,-0.0079,-0.008,-0.0102,-0.0102,0,0,0,0,0,0,0.0021,0.0022,0.0035,0.0034,0.001,-0.0001,-0.0002,0.0007,-0.0018,-0.0024,-0.0014,-0.0017,-0.005,-0.0053,-0.0056,-0.006,-0.0079,-0.008,-0.008,-0.0101,-0.0102,-0.0102,0,0,0,0,0,0,0.0021,0.0023,0.0036,0.0024,0.0024,0.0001,0.0012,0.0008,0.0004,-0.0024,-0.0031,-0.0015,-0.0051,-0.0055,-0.0066,-0.0061,-0.008,-0.008,-0.0101,-0.0101,-0.0102,-0.0045,0,0,0,0,0,0,0.0021,0.0023,0.0033,0.0025,0.0025,0.0042,0.0013,0.0009,0.0002,-0.0002,-0.0027,-0.0033,-0.0053,-0.0065,-0.0067,-0.0062,-0.0081,-0.0101,-0.0101,-0.0102,-0.0046,-0.0043,-0.004,0,0,0,0,0,0.002,0.0047,0.0034,0.0035,0.0039,0.0043,0.0042,0.002,0.0004,0.001,-0.0015,-0.0033,-0.007,-0.0065,-0.0067,-0.0063,-0.0101,-0.0101,-0.0102,-0.0048,-0.0044,-0.004,0,0,0,0,0,0,0.0044,0.0045,0.003,0.0055,0.0045,0.0035,0.0048,0.0025,0.0014,0.0011,-0.0024,-0.0031,-0.0045,-0.006,-0.0054,-0.0074,-0.0092,-0.0093,-0.0051,-0.0047,-0.0044,-0.0059,-0.0081,0,0,0,0,0,0.0054,0.0073,0.0061,0.0078,0.0084,0.0065,0.0064,0.0047,0.0034,0.0027,0.0002,-0.0023,-0.0045,-0.0051,-0.0072,-0.0066,-0.0117,-0.0071,-0.0068,-0.0065,-0.0081,-0.0158,-0.0164,-0.0103,-0.0103,-0.0103,0,0,0.0061,0.0068,0.0074,0.0083,0.0084,0.0096,0.0062,0.007,0.0066,0.0025,0.0019,-0.0012,-0.0044,-0.0051,-0.0058,-0.0062,-0.0104,-0.0065,-0.0062,-0.0081,-0.016,-0.0166,-0.0171,-0.0104,-0.0104,-0.0104,0,0,0.0094,0.0103,0.0129,0.0132,0.0133,0.0125,0.0126,0.0113,0.0097,0.009,0.0048,0.0012,0.0001,-0.0037,-0.0053,-0.0045,-0.0091,-0.0043,-0.003,-0.0103,-0.0109,-0.0115,-0.0167,-0.0179,-0.0035,-0.0034,-0.0034,0,0.0099,0.0135,0.0134,0.0161,0.017,0.014,0.0163,0.0149,0.0123,0.0104,0.0093,0.0025,0.0,-0.0036,-0.0036,-0.0039,-0.0081,-0.0034,-0.01,-0.0107,-0.0114,-0.0166,-0.0179,-0.0032,-0.0032,-0.0032,-0.0033,0,0.0151,0.0175,0.0199,0.0222,0.0229,0.025,0.023,0.0226,0.0203,0.0161,0.0115,0.0069,0.002,0.0011,-0.0005,-0.0063,-0.0075,-0.009,-0.0107,-0.0117,-0.0171,-0.0185,-0.0028,-0.0029,-0.003,-0.003,0,0,0.0174,0.0223,0.0231,0.0256,0.0266,0.0284,0.0286,0.0269,0.0264,0.0205,0.0169,0.0113,0.0059,0.0034,-0.0003,-0.0065,-0.0139,-0.009,-0.0095,-0.0137,-0.029,-0.0247,-0.0259,-0.0162,-0.0165,-0.0167,-0.03,0,0.0213,0.0287,0.0288,0.0341,0.0383,0.0363,0.0377,0.0349,0.0308,0.0263,0.0168,0.0123,0.0077,0.006,-0.0017,-0.0107,-0.0179,-0.0102,-0.0279,-0.0285,-0.0243,-0.0276,-0.0176,-0.0311,-0.0315,-0.0317,-0.0319,0,0.0266,0.0313,0.0388,0.043,0.0446,0.0461,0.0479,0.0484,0.0403,0.0366,0.027,0.0181,0.0072,0.0038,-0.015,-0.0094,-0.0196,-0.0273,-0.028,-0.0277,-0.027,-0.0307,-0.0346,-0.0344,-0.0342,-0.034,-0.0339,0,0.0327,0.0378,0.0448,0.0466,0.0511,0.0529,0.0543,0.0509,0.0524,0.0415,0.0393,0.0224,0.0161,-0.0005,-0.0172,-0.0165,-0.038,-0.0389,-0.0457,-0.0454,-0.0477,-0.047,-0.0548,-0.0548,-0.0547,-0.0547,-0.0547,0,0.0391,0.0445,0.0483,0.0532,0.0607,0.0604,0.0661,0.0644,0.0612,0.0609,0.045,0.0396,0.0145,-0.0012,-0.0173,-0.0351,-0.0387,-0.0473,-0.0495,-0.0445,-0.0433,-0.0486,-0.0477,-0.0552,-0.0551,-0.055,-0.0549,0,0.0463,0.0497,0.0577,0.0627,0.0651,0.0709,0.0766,0.0792,0.0761,0.0747,0.0714,0.0516,0.0308,0.0069,-0.0206,-0.0322,-0.0511,-0.057,-0.0489,-0.0502,-0.0538,-0.0525,-0.0665,-0.0665,-0.0665,-0.0665,-0.0665,0,0.0514,0.057,0.0654,0.0709,0.0736,0.0816,0.0873,0.0877,0.0892,0.0821,0.0803,0.0596,0.0437,0.009,-0.0167,-0.0482,-0.0521,-0.0613,-0.0601,-0.0548,-0.0556,-0.0543,-0.053,-0.0664,-0.0664,-0.0664,-0.0664,0,0.0592,0.0622,0.0676,0.079,0.0862,0.0954,0.101,0.1036,0.1025,0.0999,0.0869,0.0652,0.0413,0.0102,-0.0142,-0.0368,-0.055,-0.0613,-0.0615,-0.0604,-0.0549,-0.0554,-0.0541,-0.0664,-0.0664,-0.0664,-0.0664,0,0.0626,0.0673,0.0741,0.0835,0.0938,0.1023,0.1067,0.1065,0.1089,0.0996,0.0947,0.0674,0.0502,0.0161,-0.0063,-0.0282,-0.0339,-0.0396,-0.0411,-0.0414,-0.0299,-0.0189,-0.0228,0,0,0,0,0,0.0641,0.0687,0.0777,0.0871,0.0972,0.1038,0.112,0.1145,0.113,0.1059,0.1008,0.0781,0.0418,0.0244,0.0032,-0.0069,-0.0379,-0.0322,-0.0452,-0.0661,-0.0662,-0.0565,0,0,0,0,0,0,0.065,0.0724,0.0765,0.0875,0.0944,0.1061,0.1119,0.1122,0.108,0.103,0.0836,0.0743,0.0384,0.0533,0.0027,-0.0042,-0.0147,-0.0494,-0.0498,-0.0661,-0.0661,-0.0662,-0.0563,0,0,0,0,0]}]]